Regional Weather Roundup
Issued by NWS State College, PA

Home | Current Version | Previous Version | Graphics & Text | Print | Product List | Glossary On
Versions: 1 2 3 4 5 6 7 8 9 10 11 12 13 14 15 16 17 18 19 20 21 22 23 24 25 26 27 28 29 30 31 32 33 34 35 36 37 38 39 40 41 42 43 44 45 46 47 48 49 50
000
ASUS41 KCTP 040810
RWRCTP

REGIONAL WEATHER ROUNDUP
NATIONAL WEATHER SERVICE STATE COLLEGE PA
300 AM EST SUN DEC 04 2016

Note: "fair" indicates few or no clouds below 12,000 feet with no
significant weather and/or obstructions to visibility.

* = STATION THAT DOES NOT REPORT PRECIPITATION /E.G. RAIN...SNOW...ETC/
    THUNDER OR FOG.

PAZ002>004-007>009-013>016-020>023-029>032-040900-
WESTERN PENNSYLVANIA

CITY           SKY/WX    TMP DP  RH WIND       PRES   REMARKS
ERIE           LGT RAIN  34  32  92 SW9       30.28S FOG
MEADVILLE      CLOUDY    34  29  82 CALM      30.24S
FRANKLIN*        N/A     34  27  75 CALM      30.26S
NEW CASTLE     CLOUDY    35  28  75 CALM      30.28S
BEAVER COUNTY  NOT AVBL
BUTLER*        CLOUDY    34  27  75 CALM      30.29S
PITTSBURGH INT CLOUDY    36  27  69 CALM      30.27S
PITTSBURGH     CLOUDY    34  24  67 W3        30.26F
INDIANA*       CLOUDY    34  30  86 W5        30.29R
LATROBE        CLOUDY    34  27  75 S3        30.29S
WASHINGTON CO* CLOUDY    34  27  75 CALM      30.28S
$$

PAZ004>006-010>012-017>019-024>028-033>037-041-042-045-046-049>053-040900-
CENTRAL PENNSYLVANIA

CITY           SKY/WX    TMP DP  RH WIND       PRES   REMARKS
BRADFORD       CLOUDY    32  30  92 W5        30.21R
DUBOIS         CLOUDY    33  30  88 W6        30.23R
CLEARFIELD     CLOUDY    34  33  96 SW5       30.24R
JOHNSTOWN      CLOUDY    30  27  88 W7        30.20S
ALTOONA        CLOUDY    35  29  78 N6        30.24S
STATE COLLEGE  CLOUDY    36  32  85 W7        30.24R
WILLIAMSPORT   CLOUDY    42  23  46 NW9       30.23R
SELINSGROVE    CLOUDY    39  34  82 CALM      30.25R
FT INDIANTOWN  CLOUDY    41  32  70 VRB5      30.23S
CAPITAL CITY   CLOUDY    43  30  60 NW7       30.25R
HARRISBURG     MOCLDY    41  33  73 NW9       30.25R
YORK           CLOUDY    39  31  72 W5        30.25R
$$

PAZ038>040-043-044-047-048-054-055-060>062-067>071-040900-
EASTERN PENNSYLVANIA

CITY           SKY/WX    TMP DP  RH WIND       PRES   REMARKS
SCRANTON       CLOUDY    37  26  64 N7        30.20R
MOUNT POCONO   CLOUDY    31  23  72 NW6       30.14S
ALLENTOWN      CLOUDY    41  26  55 N6        30.22S
QUAKERTOWN*    CLOUDY    39  25  56 N5        30.22S
READING        CLOUDY    41  28  60 NW7       30.23R
LANCASTER      CLOUDY    41  34  76 NW6       30.24R
COATESVILLE    CLOUDY    41  32  70 NW8       30.23S
POTTSTOWN      CLOUDY    41  25  53 N5        30.23S
BLUE BELL      CLOUDY    41  27  56 CALM      30.22S
DOYLESTOWN     CLOUDY    42  26  53 N6        30.20S
WILLOW GROVE   NOT AVBL
NORTH PHILA    CLOUDY    44  26  49 NW8       30.23R
PHILADELPHIA   MOCLDY    44  24  45 N10       30.23R
$$



USA.gov is the U.S. government's official web portal to all federal, state and local government web resources and services.